• In Hungary
  • List of Countries
  • For 7 days
  • Water Temperature
  • Satellite Maps
  • Weather Map
  • News
  • Weather Widgets
  • user-avatar
    Login

    Hourly Weather Czarnorzeki

    Today, 22 June, Friday

    Time Temperature Precipitation Wind Pressure Humidity
    00:00 +15°C° 0.2 mm 4 mps 717 mmHg 92%
    01:00 +13°C° 0 mm 3 mps 717 mmHg 95%
    02:00 +12°C° 0.6 mm 3 mps 717 mmHg 94%
    03:00 +11°C° 0.6 mm 3 mps 717 mmHg 93%
    04:00 +10°C° 0.6 mm 4 mps 717 mmHg 92%
    05:00 +10°C° 0.2 mm 4 mps 718 mmHg 90%
    06:00 +10°C° 0.2 mm 4 mps 718 mmHg 88%
    07:00 +8°C° 0 mm 4 mps 719 mmHg 84%
    08:00 +10°C° 0 mm 4 mps 719 mmHg 78%
    09:00 +11°C° 0 mm 4 mps 719 mmHg 71%
    10:00 +12°C° 0 mm 4 mps 719 mmHg 64%
    11:00 +13°C° 0 mm 4 mps 719 mmHg 62%
    12:00 +13°C° 0 mm 4 mps 719 mmHg 59%
    13:00 +14°C° 0 mm 4 mps 719 mmHg 57%
    14:00 +13°C° 0 mm 3 mps 719 mmHg 60%
    15:00 +13°C° 0 mm 3 mps 719 mmHg 63%
    16:00 +14°C° 0 mm 2 mps 719 mmHg 66%
    17:00 +13°C° 0 mm 2 mps 719 mmHg 69%
    18:00 +13°C° 0 mm 1 mps 719 mmHg 72%
    19:00 +12°C° 0 mm 1 mps 719 mmHg 74%
    20:00 +12°C° 0 mm 1 mps 719 mmHg 74%
    21:00 +11°C° 0 mm 1 mps 719 mmHg 74%
    22:00 +10°C° 0 mm 1 mps 719 mmHg 74%
    23:00 +10°C° 0 mm 1 mps 719 mmHg 78%

    Tomorrow, 23 June, Saturday

    Time Temperature Precipitation Wind Pressure Humidity
    00:00 +9°C° 0 mm 1 mps 719 mmHg 82%
    01:00 +7°C° 0 mm 2 mps 719 mmHg 86%
    02:00 +7°C° 0 mm 2 mps 719 mmHg 88%
    03:00 +7°C° 0 mm 2 mps 719 mmHg 90%
    04:00 +7°C° 0 mm 2 mps 719 mmHg 92%
    05:00 +8°C° 0 mm 3 mps 719 mmHg 88%
    06:00 +10°C° 0 mm 3 mps 720 mmHg 84%
    07:00 +11°C° 0 mm 4 mps 720 mmHg 81%
    08:00 +12°C° 0.4 mm 4 mps 720 mmHg 78%
    09:00 +13°C° 0.4 mm 4 mps 720 mmHg 74%
    10:00 +14°C° 0.4 mm 5 mps 719 mmHg 71%
    11:00 +14°C° 0.6 mm 5 mps 719 mmHg 71%
    12:00 +14°C° 0.6 mm 5 mps 719 mmHg 71%
    13:00 +14°C° 0.6 mm 5 mps 719 mmHg 70%
    14:00 +14°C° 0.4 mm 5 mps 719 mmHg 72%
    15:00 +13°C° 0.4 mm 5 mps 719 mmHg 73%
    16:00 +13°C° 0.4 mm 5 mps 719 mmHg 75%
    17:00 +12°C° 0.2 mm 4 mps 719 mmHg 77%
    18:00 +11°C° 0.2 mm 4 mps 719 mmHg 80%
    19:00 +10°C° 0.2 mm 3 mps 719 mmHg 82%
    20:00 +9°C° 0 mm 3 mps 719 mmHg 84%
    21:00 +8°C° 0 mm 3 mps 719 mmHg 86%
    22:00 +7°C° 0 mm 2 mps 719 mmHg 88%
    23:00 +6°C° 0 mm 2 mps 719 mmHg 89%

    Day after tomorrow, 24 June, Sunday

    Time Temperature Precipitation Wind Pressure Humidity
    00:00 +5°C° 0 mm 3 mps 719 mmHg 90%
    01:00 +5°C° 0 mm 3 mps 719 mmHg 91%
    02:00 +5°C° 0 mm 3 mps 719 mmHg 92%
    03:00 +5°C° 0 mm 3 mps 719 mmHg 93%
    04:00 +7°C° 0 mm 3 mps 719 mmHg 94%
    05:00 +8°C° 0.2 mm 3 mps 720 mmHg 93%
    06:00 +9°C° 0.2 mm 3 mps 720 mmHg 92%
    07:00 +9°C° 0.2 mm 3 mps 720 mmHg 91%
    08:00 +10°C° 0.2 mm 3 mps 720 mmHg 88%
    09:00 +11°C° 0.2 mm 3 mps 721 mmHg 84%
    10:00 +12°C° 0.2 mm 3 mps 721 mmHg 81%
    11:00 +13°C° 0.4 mm 3 mps 721 mmHg 76%
    12:00 +14°C° 0.4 mm 3 mps 721 mmHg 71%
    13:00 +16°C° 0.4 mm 3 mps 721 mmHg 65%
    14:00 +17°C° 0.1 mm 3 mps 721 mmHg 63%
    15:00 +17°C° 0.1 mm 3 mps 721 mmHg 60%
    16:00 +17°C° 0.1 mm 2 mps 720 mmHg 57%
    17:00 +16°C° 0 mm 2 mps 720 mmHg 64%
    18:00 +15°C° 0 mm 1 mps 720 mmHg 70%
    19:00 +14°C° 0 mm 1 mps 720 mmHg 77%
    20:00 +12°C° 0 mm 1 mps 720 mmHg 81%
    21:00 +11°C° 0 mm 1 mps 720 mmHg 84%
    22:00 +10°C° 0 mm 1 mps 721 mmHg 87%
    23:00 +10°C° 0 mm 1 mps 721 mmHg 89%

    25 June, Monday

    Time Temperature Precipitation Wind Pressure Humidity
    00:00 +9°C° 0 mm 1 mps 721 mmHg 90%
    01:00 +9°C° 0 mm 1 mps 721 mmHg 92%
    02:00 +9°C° 0 mm 1 mps 721 mmHg 93%
    03:00 +8°C° 0 mm 1 mps 721 mmHg 93%
    04:00 +8°C° 0 mm 1 mps 721 mmHg 94%
    05:00 +9°C° 0 mm 2 mps 721 mmHg 88%
    06:00 +12°C° 0 mm 2 mps 721 mmHg 83%
    07:00 +14°C° 0 mm 2 mps 722 mmHg 78%
    08:00 +15°C° 0.1 mm 2 mps 722 mmHg 73%
    09:00 +17°C° 0.1 mm 2 mps 722 mmHg 69%
    10:00 +18°C° 0.1 mm 2 mps 722 mmHg 65%
    11:00 +18°C° 0.5 mm 2 mps 722 mmHg 65%
    12:00 +19°C° 0.5 mm 3 mps 722 mmHg 66%
    13:00 +19°C° 0.5 mm 3 mps 722 mmHg 66%
    14:00 +19°C° 0.5 mm 2 mps 722 mmHg 67%
    15:00 +19°C° 0.5 mm 2 mps 722 mmHg 68%
    16:00 +19°C° 0.5 mm 2 mps 722 mmHg 69%
    17:00 +18°C° 0.3 mm 2 mps 722 mmHg 73%
    18:00 +16°C° 0.3 mm 1 mps 723 mmHg 78%
    19:00 +15°C° 0.3 mm 1 mps 723 mmHg 82%
    20:00 +14°C° 0 mm 1 mps 723 mmHg 83%
    21:00 +13°C° 0 mm 1 mps 723 mmHg 85%
    22:00 +11°C° 0 mm 1 mps 723 mmHg 86%
    23:00 +11°C° 0 mm 1 mps 723 mmHg 87%

    26 June, Tuesday

    Time Temperature Precipitation Wind Pressure Humidity
    00:00 +10°C° 0 mm 0 mps 723 mmHg 87%
    01:00 +9°C° 0 mm 0 mps 723 mmHg 87%
    02:00 +10°C° 0 mm 1 mps 723 mmHg 88%
    03:00 +10°C° 0 mm 1 mps 723 mmHg 88%
    04:00 +9°C° 0 mm 1 mps 723 mmHg 88%
    05:00 +11°C° 0 mm 1 mps 723 mmHg 84%
    06:00 +13°C° 0 mm 1 mps 724 mmHg 80%
    07:00 +15°C° 0 mm 2 mps 724 mmHg 76%
    08:00 +17°C° 0.2 mm 2 mps 724 mmHg 70%
    09:00 +18°C° 0.2 mm 2 mps 724 mmHg 64%
    10:00 +20°C° 0.2 mm 2 mps 724 mmHg 58%
    11:00 +20°C° 0.3 mm 2 mps 724 mmHg 56%
    12:00 +21°C° 0.3 mm 2 mps 723 mmHg 55%
    13:00 +21°C° 0.3 mm 2 mps 723 mmHg 53%
    14:00 +21°C° 0.1 mm 3 mps 723 mmHg 56%
    15:00 +21°C° 0.1 mm 3 mps 723 mmHg 59%
    16:00 +21°C° 0.1 mm 3 mps 723 mmHg 61%
    17:00 +20°C° 0.2 mm 2 mps 723 mmHg 68%
    18:00 +18°C° 0.2 mm 2 mps 723 mmHg 74%
    19:00 +18°C° 0.2 mm 1 mps 722 mmHg 81%
    20:00 +15°C° 0 mm 1 mps 722 mmHg 83%
    21:00 +14°C° 0 mm 1 mps 722 mmHg 86%
    22:00 +13°C° 0 mm 1 mps 722 mmHg 89%
    23:00 +13°C° 0 mm 1 mps 722 mmHg 90%

    27 June, Wednesday

    Time Temperature Precipitation Wind Pressure Humidity
    00:00 +12°C° 0 mm 1 mps 722 mmHg 92%
    01:00 +12°C° 0 mm 1 mps 722 mmHg 93%
    02:00 +12°C° 0 mm 1 mps 722 mmHg 94%
    03:00 +11°C° 0 mm 1 mps 722 mmHg 94%
    04:00 +11°C° 0 mm 1 mps 722 mmHg 95%
    05:00 +13°C° 0 mm 2 mps 722 mmHg 91%
    06:00 +14°C° 0 mm 2 mps 722 mmHg 87%
    07:00 +16°C° 0 mm 3 mps 722 mmHg 83%
    08:00 +17°C° 0.2 mm 3 mps 722 mmHg 77%
    09:00 +18°C° 0.2 mm 4 mps 722 mmHg 71%
    10:00 +20°C° 0.2 mm 4 mps 722 mmHg 66%
    11:00 +20°C° 0.3 mm 4 mps 722 mmHg 64%
    12:00 +20°C° 0.3 mm 5 mps 722 mmHg 63%
    13:00 +21°C° 0.3 mm 5 mps 722 mmHg 61%
    14:00 +21°C° 0.1 mm 5 mps 722 mmHg 61%
    15:00 +21°C° 0.1 mm 4 mps 722 mmHg 61%
    16:00 +21°C° 0.1 mm 4 mps 722 mmHg 61%
    17:00 +19°C° 0.1 mm 4 mps 722 mmHg 66%
    18:00 +18°C° 0.1 mm 3 mps 722 mmHg 72%
    19:00 +17°C° 0.1 mm 3 mps 722 mmHg 78%
    20:00 +15°C° 0 mm 2 mps 722 mmHg 81%
    21:00 +14°C° 0 mm 2 mps 722 mmHg 84%
    22:00 +13°C° 0 mm 1 mps 722 mmHg 87%
    23:00 +12°C° 0 mm 1 mps 722 mmHg 88%
    Show more